When you browse on this site, cookies collect data to enhance your experience and personalize the content and advertising you see.
Visit our Privacy Policy to learn more. By continuing to use the site, you agree to this use of cookies and data.
  • în România
  • Lista ţărilor
  • Pe 7 zile
  • Temperatura apei
  • Meteo pe hartă
  • Widget-uri
  • user-avatar
    Intrare

    Meteo pe oră la Lisburn

    Astăzi, 13 Decembrie, Vineri

    Timp Temperatura Precipitaţii Vânt Presiune Umiditate
    00:00 +4°C° 0.3 mm 4 m/s 724 mmHg 90%
    01:00 +3°C° 0.2 mm 5 m/s 724 mmHg 90%
    02:00 +3°C° 0.2 mm 5 m/s 724 mmHg 89%
    03:00 +4°C° 0.2 mm 6 m/s 725 mmHg 89%
    04:00 +4°C° 0.2 mm 7 m/s 725 mmHg 88%
    05:00 +4°C° 0.2 mm 7 m/s 725 mmHg 87%
    06:00 +4°C° 0.2 mm 8 m/s 725 mmHg 86%
    07:00 +4°C° 0.1 mm 7 m/s 726 mmHg 87%
    08:00 +4°C° 0.1 mm 7 m/s 727 mmHg 88%
    09:00 +4°C° 0.1 mm 6 m/s 727 mmHg 90%
    10:00 +4°C° 0 mm 6 m/s 728 mmHg 88%
    11:00 +5°C° 0 mm 7 m/s 729 mmHg 87%
    12:00 +5°C° 0 mm 7 m/s 729 mmHg 85%
    13:00 +5°C° 0.1 mm 7 m/s 729 mmHg 85%
    14:00 +5°C° 0.1 mm 7 m/s 730 mmHg 84%
    15:00 +4°C° 0.1 mm 8 m/s 730 mmHg 84%
    16:00 +4°C° 0 mm 7 m/s 730 mmHg 84%
    17:00 +3°C° 0 mm 7 m/s 729 mmHg 84%
    18:00 +3°C° 0 mm 7 m/s 729 mmHg 84%
    19:00 +2°C° 0 mm 7 m/s 729 mmHg 85%
    20:00 +2°C° 0 mm 7 m/s 729 mmHg 85%
    21:00 +2°C° 0 mm 7 m/s 729 mmHg 85%
    22:00 +2°C° 0 mm 7 m/s 729 mmHg 86%
    23:00 +2°C° 0 mm 7 m/s 728 mmHg 86%

    Mâine, 14 Decembrie, Sâmbătă

    Timp Temperatura Precipitaţii Vânt Presiune Umiditate
    00:00 0°C° 0 mm 7 m/s 728 mmHg 87%
    01:00 0°C° 0.2 mm 8 m/s 728 mmHg 88%
    02:00 0°C° 0.2 mm 9 m/s 728 mmHg 88%
    03:00 0°C° 0.2 mm 9 m/s 728 mmHg 89%
    04:00 0°C° 0.1 mm 9 m/s 728 mmHg 85%
    05:00 0°C° 0.1 mm 9 m/s 729 mmHg 82%
    06:00 -1°C° 0.1 mm 9 m/s 729 mmHg 78%
    07:00 -1°C° 0 mm 9 m/s 729 mmHg 77%
    08:00 -2°C° 0 mm 10 m/s 730 mmHg 75%
    09:00 -2°C° 0 mm 10 m/s 730 mmHg 73%
    10:00 -2°C° 0 mm 10 m/s 730 mmHg 75%
    11:00 -2°C° 0 mm 11 m/s 731 mmHg 77%
    12:00 -1°C° 0 mm 11 m/s 731 mmHg 79%
    13:00 -2°C° 0.1 mm 10 m/s 731 mmHg 77%
    14:00 -1°C° 0.1 mm 9 m/s 731 mmHg 74%
    15:00 -1°C° 0.1 mm 8 m/s 732 mmHg 72%
    16:00 -1°C° 0 mm 7 m/s 732 mmHg 73%
    17:00 -1°C° 0 mm 6 m/s 731 mmHg 74%
    18:00 -2°C° 0 mm 6 m/s 731 mmHg 74%
    19:00 -1°C° 0 mm 5 m/s 731 mmHg 77%
    20:00 -1°C° 0 mm 4 m/s 731 mmHg 79%
    21:00 0°C° 0 mm 3 m/s 731 mmHg 81%
    22:00 -2°C° 0 mm 4 m/s 731 mmHg 84%
    23:00 -2°C° 0 mm 4 m/s 732 mmHg 86%

    Poimâine, 15 Decembrie, Duminică

    Timp Temperatura Precipitaţii Vânt Presiune Umiditate
    00:00 -2°C° 0 mm 5 m/s 732 mmHg 88%
    01:00 -2°C° 0 mm 5 m/s 733 mmHg 87%
    02:00 -2°C° 0 mm 5 m/s 733 mmHg 86%
    03:00 -2°C° 0 mm 5 m/s 733 mmHg 86%
    04:00 -2°C° 0.4 mm 5 m/s 733 mmHg 88%
    05:00 -2°C° 0.4 mm 4 m/s 733 mmHg 91%
    06:00 -2°C° 0.4 mm 4 m/s 733 mmHg 94%
    07:00 -1°C° 0.5 mm 5 m/s 733 mmHg 93%
    08:00 0°C° 0.5 mm 5 m/s 734 mmHg 91%
    09:00 +1°C° 0.5 mm 6 m/s 734 mmHg 90%
    10:00 +1°C° 0 mm 6 m/s 734 mmHg 88%
    11:00 +1°C° 0 mm 6 m/s 735 mmHg 85%
    12:00 +1°C° 0 mm 6 m/s 735 mmHg 83%
    13:00 +1°C° 0 mm 6 m/s 735 mmHg 83%
    14:00 +1°C° 0 mm 5 m/s 735 mmHg 83%
    15:00 +1°C° 0 mm 5 m/s 735 mmHg 84%
    16:00 0°C° 0 mm 4 m/s 735 mmHg 85%
    17:00 0°C° 0 mm 4 m/s 735 mmHg 86%
    18:00 0°C° 0 mm 3 m/s 735 mmHg 87%
    19:00 0°C° 0 mm 3 m/s 735 mmHg 88%
    20:00 0°C° 0 mm 3 m/s 736 mmHg 89%
    21:00 0°C° 0 mm 3 m/s 736 mmHg 90%
    22:00 +1°C° 0 mm 2 m/s 736 mmHg 89%
    23:00 +1°C° 0 mm 2 m/s 735 mmHg 87%

    16 Decembrie, Luni

    Timp Temperatura Precipitaţii Vânt Presiune Umiditate
    00:00 +1°C° 0 mm 2 m/s 735 mmHg 86%
    01:00 +1°C° 0.2 mm 2 m/s 735 mmHg 87%
    02:00 +2°C° 0.2 mm 2 m/s 735 mmHg 87%
    03:00 +2°C° 0.2 mm 2 m/s 735 mmHg 88%
    04:00 +1°C° 0.2 mm 2 m/s 736 mmHg 89%
    05:00 0°C° 0.2 mm 3 m/s 736 mmHg 91%
    06:00 0°C° 0.2 mm 3 m/s 737 mmHg 92%
    07:00 0°C° 0.2 mm 3 m/s 738 mmHg 93%
    08:00 0°C° 0.2 mm 3 m/s 739 mmHg 93%
    09:00 0°C° 0.2 mm 3 m/s 740 mmHg 94%
    10:00 +1°C° 0 mm 3 m/s 741 mmHg 92%
    11:00 +1°C° 0 mm 3 m/s 741 mmHg 90%
    12:00 +2°C° 0 mm 3 m/s 742 mmHg 88%
    13:00 +1°C° 0 mm 3 m/s 742 mmHg 88%
    14:00 +1°C° 0 mm 3 m/s 742 mmHg 88%
    15:00 +2°C° 0 mm 2 m/s 743 mmHg 88%
    16:00 +2°C° 0 mm 2 m/s 743 mmHg 87%
    17:00 +1°C° 0 mm 2 m/s 743 mmHg 87%
    18:00 +1°C° 0 mm 2 m/s 743 mmHg 86%
    19:00 +1°C° 0 mm 2 m/s 743 mmHg 85%
    20:00 +1°C° 0 mm 2 m/s 744 mmHg 84%
    21:00 +1°C° 0 mm 2 m/s 744 mmHg 83%
    22:00 +2°C° 0 mm 2 m/s 744 mmHg 83%
    23:00 +2°C° 0 mm 2 m/s 744 mmHg 83%

    17 Decembrie, Marţi

    Timp Temperatura Precipitaţii Vânt Presiune Umiditate
    00:00 +2°C° 0 mm 2 m/s 744 mmHg 83%
    01:00 +3°C° 0.1 mm 2 m/s 745 mmHg 85%
    02:00 +3°C° 0.1 mm 2 m/s 745 mmHg 86%
    03:00 +3°C° 0.1 mm 2 m/s 745 mmHg 87%
    04:00 +3°C° 0.2 mm 2 m/s 745 mmHg 88%
    05:00 +3°C° 0.2 mm 2 m/s 745 mmHg 89%
    06:00 +3°C° 0.2 mm 2 m/s 746 mmHg 90%
    07:00 +3°C° 0.2 mm 2 m/s 746 mmHg 90%
    08:00 +2°C° 0.2 mm 2 m/s 746 mmHg 91%
    09:00 +1°C° 0.2 mm 3 m/s 747 mmHg 92%
    10:00 +2°C° 0 mm 3 m/s 747 mmHg 92%
    11:00 +2°C° 0 mm 3 m/s 748 mmHg 92%
    12:00 +3°C° 0 mm 3 m/s 748 mmHg 92%
    13:00 +3°C° 0 mm 2 m/s 748 mmHg 91%
    14:00 +3°C° 0 mm 2 m/s 749 mmHg 91%
    15:00 +3°C° 0 mm 2 m/s 749 mmHg 91%
    16:00 +2°C° 0 mm 2 m/s 750 mmHg 91%
    17:00 +2°C° 0 mm 2 m/s 750 mmHg 91%
    18:00 +1°C° 0 mm 2 m/s 750 mmHg 91%
    19:00 +1°C° 0 mm 2 m/s 751 mmHg 91%
    20:00 +1°C° 0 mm 2 m/s 752 mmHg 90%
    21:00 +1°C° 0 mm 2 m/s 752 mmHg 89%
    22:00 +1°C° 0 mm 2 m/s 752 mmHg 89%
    23:00 +1°C° 0 mm 2 m/s 753 mmHg 89%

    18 Decembrie, Miercuri

    Timp Temperatura Precipitaţii Vânt Presiune Umiditate
    00:00 +2°C° 0 mm 2 m/s 753 mmHg 90%
    01:00 +1°C° 0 mm 3 m/s 753 mmHg 90%
    02:00 +1°C° 0 mm 3 m/s 753 mmHg 89%
    03:00 +2°C° 0 mm 3 m/s 753 mmHg 89%
    04:00 +2°C° 0 mm 3 m/s 753 mmHg 89%
    05:00 +3°C° 0 mm 4 m/s 753 mmHg 89%
    06:00 +4°C° 0 mm 4 m/s 752 mmHg 88%
    07:00 +3°C° 0 mm 5 m/s 752 mmHg 88%
    08:00 +3°C° 0 mm 6 m/s 752 mmHg 88%
    09:00 +4°C° 0 mm 6 m/s 752 mmHg 87%
    10:00 +5°C° 0 mm 7 m/s 752 mmHg 87%
    11:00 +5°C° 0 mm 8 m/s 752 mmHg 86%
    12:00 +6°C° 0 mm 9 m/s 752 mmHg 85%
    13:00 +6°C° 0 mm 9 m/s 752 mmHg 85%
    14:00 +6°C° 0 mm 9 m/s 751 mmHg 84%
    15:00 +6°C° 0 mm 9 m/s 751 mmHg 84%
    16:00 +6°C° 0 mm 10 m/s 751 mmHg 84%
    17:00 +6°C° 0 mm 10 m/s 750 mmHg 84%
    18:00 +6°C° 0 mm 10 m/s 750 mmHg 84%
    19:00 +6°C° 0.1 mm 10 m/s 750 mmHg 84%
    20:00 +6°C° 0.1 mm 10 m/s 750 mmHg 85%
    21:00 +6°C° 0.1 mm 11 m/s 750 mmHg 85%
    22:00 +6°C° 0.2 mm 11 m/s 749 mmHg 86%
    23:00 +6°C° 0.2 mm 11 m/s 749 mmHg 88%
    Arată mai mult